Wind_Gust
4 2 3 1 3 1 4 4 6 8 4 7 8 6 16 6 14 6 4 3 7 4 3 7 12 10 9 13 22 16 14 6 4 12 11 11 7 16 18 18 17 18 18 16 14 15 15 16 20 21 20 21 20 20 21 22 22 21 21 20 20 21 21 22 23 23 23 23 23 22 23 23 23 23 22 22 23 22 21 22 22 23 22 23 22 21 21 19 18 17 17 17 17 17 18 17 17
2 4 3 2 2 2 5 4 7 3 5 6 17 3 10 8 4 5 6 4 4 3 3 13 20 26 25 22 17 13 17 11 4 10 11 14 12 15 16 18 20 22 17 16 16 14 14 16 19 20 20 21 20 21 22 22 23 22 21 20 19 20 21 22 23 22 23 22 22 22 22 22 22 22 22 22 23 21 18 21 21 23 22 22 22 21 21 21 18 16 16 15 15 16 16 16 16
3 6 8 6 3 4 5 4 5 3 4 7 14 12 6 9 7 5 5 4 4 4 8 10 13 10 8 7 15 9 4 5 19 17 18 14 20 9 12 15 15 17 17 15 17 16 13 15 19 20 20 20 20 21 22 22 22 23 22 20 20 21 21 22 22 22 22 22 21 21 21 22 21 21 21 21 22 20 19 18 21 21 22 22 23 22 22 21 19 16 15 14 13 14 15 15 15
4 2 3 3 4 3 5 5 5 9 6 13 11 11 6 7 6 8 7 5 3 2 4 11 14 11 12 21 15 15 13 9 8 19 27 17 15 16 15 16 15 15 13 14 15 16 13 15 17 18 19 19 20 21 21 22 23 23 22 20 20 19 20 21 21 21 21 21 21 21 21 21 20 20 18 20 22 20 19 17 17 20 22 22 22 22 22 21 19 16 14 13 13 14 15 15 15
3 1 5 4 7 4 6 7 6 8 10 13 8 12 5 4 7 6 3 7 8 3 7 11 15 9 13 13 4 6 8 9 10 6 18 12 17 19 17 17 16 16 14 14 14 16 16 19 16 17 18 19 20 21 21 22 22 22 21 20 20 20 20 21 21 21 21 21 21 20 21 20 19 19 19 21 21 19 15 16 17 19 19 20 20 20 20 19 18 15 14 13 13 14 14 14 14
2 2 2 5 6 5 5 3 6 11 10 4 5 10 9 8 5 5 4 4 3 3 9 7 11 7 15 8 7 10 16 16 11 7 19 18 21 21 20 17 17 16 14 13 13 14 17 18 17 17 18 19 20 21 21 22 22 22 21 20 20 19 21 21 21 21 22 21 21 20 20 19 19 18 21 21 20 19 19 19 18 17 18 18 20 21 20 19 17 14 13 13 13 13 13 13 13
3 5 5 2 8 4 8 4 8 7 22 10 13 15 13 12 6 3 7 3 3 6 7 12 23 18 19 10 12 8 3 13 13 16 14 22 20 20 18 18 18 17 16 15 13 15 19 19 18 18 18 19 20 21 22 21 22 21 20 20 19 20 20 20 20 20 20 21 21 20 19 19 18 19 21 20 20 19 18 18 18 18 18 19 20 21 19 18 16 14 13 12 12 12 13 12 12
2 6 6 6 6 3 4 5 12 9 13 12 8 17 19 15 6 6 4 4 5 3 8 15 13 17 4 5 11 4 5 3 12 17 21 23 20 19 19 19 20 16 16 14 13 14 22 18 18 18 18 20 20 21 21 21 21 21 20 19 19 20 18 19 18 18 19 19 20 20 19 18 19 18 18 19 20 19 19 20 19 19 19 20 20 19 17 16 14 13 12 11 11 11 11 12 12
3 3 4 8 3 4 4 9 12 8 15 16 20 14 17 9 1 1 4 2 2 7 11 13 12 17 8 12 8 4 7 10 13 22 21 21 20 18 21 20 20 17 16 16 14 13 15 17 17 18 19 19 21 21 20 21 20 20 20 19 18 16 16 16 17 16 16 16 17 18 19 18 18 18 18 18 19 20 20 19 19 20 19 19 18 17 16 15 13 13 12 11 10 11 11 12 12
3 6 3 8 7 4 4 13 5 10 9 11 15 13 5 3 3 2 1 6 6 15 9 7 8 17 14 15 10 3 9 10 17 18 18 18 18 18 19 20 21 19 16 15 15 14 15 21 17 18 18 20 20 20 20 20 20 18 18 17 16 15 15 15 15 15 15 16 16 15 15 15 15 15 15 15 19 20 20 20 20 20 19 18 17 16 14 13 13 13 12 11 10 10 10 10 13
7 4 4 4 2 6 9 11 8 14 11 10 4 9 7 3 3 3 2 4 6 13 11 21 18 17 12 6 5 3 6 10 15 17 12 15 20 22 20 19 20 21 19 16 14 13 15 17 22 17 18 18 18 18 18 18 18 18 18 16 15 15 15 15 15 15 15 16 15 15 15 15 14 13 14 17 20 20 20 20 20 20 19 17 17 15 14 12 13 13 12 10 9 9 9 12 15
5 4 3 3 7 8 8 6 8 16 17 5 4 5 3 2 2 3 5 10 9 9 5 3 17 15 10 8 8 7 9 7 9 11 15 22 23 24 21 18 19 18 21 17 14 12 13 15 17 22 19 17 17 17 18 18 17 17 17 16 15 15 15 15 15 14 15 15 15 16 16 16 15 15 15 17 19 20 19 20 20 20 17 17 16 15 14 12 12 12 11 10 9 9 10 13 14
6 3 2 4 8 3 10 8 11 11 8 5 6 5 2 7 3 5 7 14 8 15 12 9 22 5 8 5 5 4 9 6 6 11 16 21 22 21 20 20 21 20 19 17 17 14 12 11 13 15 18 21 17 16 17 18 16 16 16 16 15 15 15 15 14 14 14 15 15 15 16 16 15 16 18 19 20 19 20 20 20 18 17 17 17 15 14 13 11 11 10 9 9 8 10 12 14
10 11 9 8 4 7 9 9 7 6 3 6 4 3 2 5 2 5 11 10 7 11 13 19 12 11 7 9 6 8 11 8 6 10 18 19 21 23 21 21 20 19 18 18 17 15 13 13 13 13 16 15 15 17 17 17 16 16 16 16 16 16 15 14 14 14 14 15 15 15 16 16 16 19 20 20 21 19 20 19 18 17 17 17 16 15 14 13 11 10 9 9 8 7 9 11 13
13 5 4 7 11 7 7 8 6 4 5 2 5 2 4 3 3 5 15 15 11 10 11 8 15 10 14 14 11 16 15 11 9 9 18 20 21 22 21 21 20 18 17 17 18 15 14 13 13 13 12 11 12 11 12 17 16 16 15 15 15 15 14 14 14 14 14 14 15 15 16 16 18 21 20 20 20 20 18 17 17 16 16 16 16 15 14 13 10 9 8 7 6 5 7 9 11
14 6 6 5 10 2 15 6 5 8 7 4 4 2 5 4 4 6 5 15 11 5 7 9 7 9 12 20 12 21 17 16 23 14 19 22 19 20 22 19 19 18 16 16 17 13 14 12 12 12 12 12 11 10 11 11 15 16 15 16 15 14 15 14 15 14 15 17 17 17 17 16 16 17 22 20 20 20 17 12 15 16 16 16 15 14 13 13 11 10 8 6 4 5 6 8 8
4 8 8 9 13 5 11 3 4 9 5 5 4 8 5 5 8 4 7 15 18 5 3 5 4 6 20 15 10 22 21 27 28 26 14 18 19 19 20 19 18 15 14 11 16 14 13 13 12 12 12 12 11 11 10 11 14 17 14 15 15 15 15 15 15 17 17 16 15 14 12 10 9 11 16 14 19 15 13 15 16 16 16 15 15 14 13 11 10 9 8 5 3 4 5 6 6
4 12 13 11 12 6 9 6 4 3 4 7 7 4 7 5 11 5 10 15 12 9 8 5 14 14 10 12 24 24 23 25 23 23 13 19 17 19 20 18 19 18 14 11 14 14 14 11 12 13 13 12 13 13 12 13 15 16 12 13 12 14 14 13 14 11 11 11 14 15 11 11 9 10 10 13 11 14 15 17 16 15 16 16 15 14 13 11 8 8 7 6 4 3 4 3 5
11 8 11 18 11 16 2 4 11 5 3 1 6 7 5 4 2 5 12 4 6 9 5 5 11 16 22 24 25 25 21 17 19 19 14 15 18 20 20 17 18 18 15 13 13 12 13 13 13 16 17 17 17 15 16 16 15 13 13 13 13 12 13 13 10 13 10 10 11 9 10 9 9 9 10 12 12 13 14 16 16 15 16 16 15 14 13 12 8 6 6 5 4 2 4 6 8
10 10 12 19 7 7 5 7 8 4 7 5 6 6 6 7 6 3 6 8 7 11 8 2 6 13 18 20 22 19 20 17 17 23 16 18 19 22 20 18 19 19 18 16 16 14 17 19 17 14 13 14 16 16 15 15 13 13 13 12 12 11 11 11 11 12 10 8 9 9 9 9 9 10 14 19 16 11 13 14 15 15 15 15 15 11 12 11 10 5 3 4 5 5 3 4 9
8 10 17 13 8 6 10 5 9 4 6 3 2 7 8 8 6 5 11 11 3 4 8 12 14 20 20 19 19 17 18 17 8 13 13 19 12 11 17 22 22 21 17 15 14 15 14 11 11 8 7 10 11 14 14 16 16 15 13 13 13 12 11 11 11 10 10 10 10 9 9 7 8 9 7 9 9 10 8 7 8 7 7 7 11 7 7 8 7 4 1 3 4 4 4 7 9
6 16 15 13 11 8 14 9 12 5 5 6 4 6 6 7 4 7 5 6 10 14 14 10 19 24 26 22 17 18 17 14 11 16 15 21 20 17 19 18 15 13 14 16 14 13 13 11 9 9 8 5 3 4 5 8 14 13 14 14 13 11 11 10 10 10 10 11 10 10 10 9 8 8 9 10 9 10 10 7 8 8 7 7 7 9 7 7 7 6 4 2 2 1 2 7 10
20 14 8 12 11 11 9 4 7 9 6 3 2 1 1 5 7 6 2 4 9 14 10 12 22 21 22 22 21 18 15 15 14 14 16 21 24 21 16 14 14 15 18 15 8 8 9 9 11 12 12 9 7 6 7 6 9 10 11 12 12 11 10 12 11 11 12 12 11 12 13 10 9 8 9 9 10 9 10 9 9 8 8 7 6 7 6 7 7 7 6 4 2 1 1 7 9
20 25 6 12 12 15 8 6 9 7 12 6 6 3 5 2 6 3 8 9 6 8 6 17 19 20 23 23 17 20 17 17 15 18 20 22 25 20 19 17 11 8 16 13 8 7 10 11 10 11 12 12 11 8 6 5 5 9 10 12 11 12 12 12 12 12 13 14 13 12 12 12 12 10 9 10 9 8 9 8 8 8 8 7 6 7 9 8 8 7 6 3 3 3 2 7 10
14 21 11 11 8 11 12 8 6 6 8 8 4 3 6 3 6 4 12 7 2 10 16 18 21 21 18 19 17 15 12 12 17 19 17 18 21 20 18 19 18 18 13 8 6 5 9 11 12 12 11 12 10 8 9 7 6 6 7 10 11 13 10 11 12 13 13 12 12 13 13 13 11 11 11 10 9 9 8 8 8 8 6 7 6 6 6 8 8 8 7 7 5 3 4 9 11
10 17 10 7 9 6 9 6 9 13 9 7 4 3 7 11 5 7 14 10 9 14 15 18 20 19 17 17 16 15 14 15 16 19 19 16 19 23 20 19 21 19 14 10 13 8 9 9 10 10 12 14 10 5 7 7 7 5 4 7 8 9 8 9 11 12 12 13 12 12 13 14 14 13 12 9 11 9 8 6 7 6 7 4 6 7 7 7 8 7 6 5 4 4 8 8 11
10 15 14 11 9 7 3 3 3 4 3 5 6 3 6 7 7 15 8 4 15 14 14 15 19 18 15 15 14 13 17 16 19 21 20 17 17 20 17 16 19 16 11 12 12 11 10 12 9 7 8 9 6 6 5 6 4 5 4 3 3 6 6 9 9 10 10 10 12 12 12 13 13 12 12 11 9 10 9 8 7 6 6 8 9 9 6 7 7 9 8 7 6 9 11 8 10
10 13 5 4 7 5 5 3 5 2 5 7 8 5 7 8 6 12 13 2 18 18 14 15 15 16 16 17 16 14 14 17 20 21 23 21 22 21 19 19 18 18 17 14 10 11 10 16 11 7 8 9 7 6 6 7 6 7 7 7 5 6 7 7 9 10 11 10 10 12 12 13 13 12 12 11 10 10 10 9 7 7 9 8 10 8 8 8 7 2 3 5 11 14 12 11 10
8 5 6 8 10 13 4 7 4 5 7 6 4 4 9 8 10 9 14 10 13 19 19 17 13 14 17 17 18 17 17 18 19 19 18 17 19 22 23 20 25 22 15 14 12 13 13 15 13 11 8 7 6 6 7 7 6 6 10 9 8 8 8 7 8 9 10 10 10 12 13 13 12 14 12 12 10 10 9 9 8 7 6 5 8 9 6 6 6 8 12 13 16 13 13 11 11
7 4 6 6 10 13 13 4 3 3 9 8 8 10 15 13 14 14 13 13 14 14 16 16 10 13 15 16 16 15 12 15 14 17 18 19 20 19 21 18 20 18 23 22 18 14 10 12 12 13 10 9 7 6 7 9 8 7 8 10 9 9 8 9 8 8 9 10 10 10 12 12 11 11 12 10 10 9 8 8 6 2 1 4 6 9 10 8 10 12 12 15 12 12 12 9 13
4 7 6 6 5 18 5 9 4 11 10 9 9 10 18 11 17 14 10 8 20 18 21 15 11 12 13 14 15 15 13 11 15 16 15 16 17 15 17 20 22 21 19 22 24 20 11 13 14 15 14 9 9 8 10 11 9 9 10 10 10 10 10 10 9 9 9 10 8 9 10 10 10 11 10 12 10 9 8 7 6 4 3 2 9 9 12 11 11 13 14 17 12 10 9 8 11
6 5 8 7 10 19 6 7 9 18 7 10 10 9 21 15 13 14 10 8 20 18 18 14 15 12 13 12 13 13 11 11 15 16 16 16 16 15 18 19 16 19 20 24 23 19 15 14 14 12 11 11 9 11 9 11 11 10 10 10 10 10 10 10 11 10 9 8 8 9 9 10 10 11 10 11 11 9 9 8 8 5 5 6 8 9 12 13 13 13 12 17 16 9 11 10 9
9 8 6 9 6 16 15 8 12 16 9 8 17 17 9 12 13 15 11 7 19 21 16 15 13 11 11 12 12 14 16 14 16 16 17 18 16 17 18 18 18 18 15 17 23 23 19 17 9 11 13 13 12 11 9 7 9 10 10 10 10 9 9 9 9 8 8 9 9 10 10 10 10 10 10 11 11 10 9 10 7 5 9 9 9 10 11 10 13 13 10 10 14 12 11 12 9
10 5 14 9 9 4 11 13 10 13 16 10 13 17 12 10 9 9 10 12 21 23 21 17 14 12 12 13 14 17 19 20 19 19 20 18 18 16 16 17 15 16 14 10 17 23 22 18 15 13 12 12 13 14 13 11 10 8 7 8 9 9 8 7 7 9 9 10 9 10 11 11 11 11 11 9 9 8 8 9 7 8 12 12 12 8 11 10 11 13 12 6 12 14 11 12 11
13 7 6 13 7 5 14 11 11 17 14 18 12 13 15 14 13 9 10 10 22 18 22 20 17 12 12 14 13 14 19 21 21 21 21 20 15 12 14 15 15 14 13 11 12 13 20 19 19 18 16 13 13 13 12 9 7 6 4 5 7 7 8 8 8 9 9 10 10 8 10 11 10 11 12 10 12 13 9 7 9 8 13 12 12 10 10 10 8 9 13 10 5 9 12 10 12
10 4 8 5 9 14 11 14 15 18 15 17 15 20 17 14 11 9 5 8 7 17 18 17 16 14 11 10 10 14 18 19 21 21 22 19 15 18 16 16 15 16 14 16 16 17 22 23 21 19 14 14 12 11 10 8 8 10 10 5 6 8 8 10 9 10 10 10 11 12 10 9 9 10 12 15 8 9 10 7 7 9 12 12 13 13 8 11 12 12 12 14 12 9 7 10 12
9 5 3 9 12 11 8 12 12 12 17 13 14 12 12 11 11 6 4 6 9 7 4 4 7 9 11 11 11 14 16 19 21 25 23 19 18 20 16 17 18 17 16 18 18 19 23 27 24 22 16 16 16 16 14 13 12 10 7 11 11 8 11 10 10 10 11 11 12 15 14 11 10 9 8 13 14 9 8 8 9 9 9 10 13 13 10 10 10 12 12 8 14 12 8 9 10
8 5 3 15 12 15 11 14 9 7 11 6 7 9 9 10 13 10 4 5 6 7 14 11 14 13 13 13 13 11 12 13 22 20 17 14 15 13 17 17 19 26 22 21 23 24 23 23 24 22 19 18 18 17 16 15 14 15 14 14 9 10 11 15 12 11 10 12 12 12 13 11 6 10 11 9 10 10 10 9 8 10 9 7 10 11 7 10 10 12 14 14 8 14 14 12 14
7 7 9 10 17 8 16 10 9 5 7 11 6 15 11 11 8 10 8 6 6 6 18 19 17 13 11 15 13 14 16 21 21 20 16 15 14 14 16 16 19 24 26 27 26 25 22 22 21 21 22 20 19 19 19 19 13 11 13 11 10 11 6 6 7 8 9 12 12 11 12 15 13 10 8 10 11 9 9 9 9 10 10 10 12 14 10 10 11 13 13 18 15 5 8 11 15
4 2 5 12 10 5 13 10 11 13 5 3 3 7 6 11 6 9 11 8 8 5 11 14 19 20 20 20 21 22 21 23 23 22 23 18 16 18 17 17 19 21 22 21 23 29 29 24 25 24 23 22 22 22 22 19 15 11 8 9 7 7 9 8 6 6 8 11 11 10 10 12 14 12 11 10 10 9 9 10 10 10 11 9 12 15 14 12 11 11 11 13 17 16 14 14 11
7 10 6 5 4 6 7 9 9 6 10 5 7 8 9 8 6 11 13 9 8 13 14 7 10 17 25 24 15 21 25 23 22 19 19 19 20 22 25 23 21 22 24 25 24 34 34 34 30 30 28 26 24 25 23 17 14 12 12 11 8 9 7 7 8 9 10 11 12 10 11 11 11 11 11 10 11 11 9 10 11 11 11 9 11 14 14 14 13 13 13 14 16 21 16 15 14
8 7 10 8 5 6 8 5 11 17 12 9 5 8 8 10 10 10 14 11 17 15 17 15 4 10 10 10 13 13 15 20 31 30 28 25 25 22 20 23 25 25 27 26 23 18 24 27 27 23 19 21 22 21 22 18 17 17 17 15 15 11 11 14 15 16 14 15 16 10 10 11 11 10 9 9 8 9 10 11 10 10 10 11 11 11 11 10 10 11 13 15 14 12 21 15 16
9 11 6 6 6 5 5 9 5 4 7 5 8 12 11 13 9 7 8 12 15 18 19 17 19 14 10 2 10 10 10 12 13 10 9 13 16 21 20 22 23 22 18 15 14 14 20 22 23 24 21 16 15 18 21 20 18 15 16 17 16 16 16 14 10 10 11 10 9 10 11 10 11 12 10 9 8 14 10 10 11 11 10 10 9 10 12 13 12 11 9 12 13 12 12 19 15
11 8 5 2 5 6 10 6 7 9 5 5 12 8 7 7 13 7 7 17 19 21 23 20 22 19 16 12 10 11 18 16 18 19 16 14 13 13 13 10 7 6 7 11 10 11 13 16 17 19 18 18 18 17 20 21 20 18 15 13 14 15 15 14 12 11 9 9 11 10 9 10 10 10 11 9 12 16 12 11 10 9 9 7 10 12 13 11 10 8 9 10 9 12 15 18 14
11 6 8 7 7 6 12 9 6 5 9 11 14 5 9 5 12 16 17 18 18 17 15 18 20 19 18 21 19 20 13 16 19 18 16 15 15 14 12 13 9 7 6 9 11 14 16 15 12 8 14 15 14 15 18 19 19 20 19 16 14 11 11 11 9 10 11 10 11 9 9 9 9 9 9 9 12 12 11 11 9 9 10 9 10 10 9 11 12 12 12 12 11 11 12 10 14
8 8 5 5 3 4 4 5 7 7 11 9 7 4 6 8 17 21 13 21 16 10 11 14 16 18 22 22 21 20 18 13 14 18 20 19 20 19 17 11 11 14 12 13 11 14 17 15 11 6 8 12 13 15 17 17 18 19 18 15 14 12 12 11 11 13 12 10 11 10 9 10 9 9 9 8 9 10 10 9 8 9 8 9 8 9 9 10 10 12 14 13 11 10 10 11 15
3 6 6 4 9 4 5 8 6 11 6 9 7 5 9 8 14 16 18 11 7 11 8 16 18 21 22 21 22 23 21 19 17 15 9 10 17 18 14 15 17 19 22 20 15 15 15 15 12 11 13 11 12 14 15 17 16 17 17 16 14 14 14 15 13 13 13 11 12 11 11 10 8 10 9 9 10 10 9 9 9 8 8 9 10 10 11 12 12 12 11 10 10 11 11 11 9
6 8 8 4 6 12 10 8 12 9 10 12 9 4 9 9 6 11 14 10 12 10 13 16 16 17 18 18 20 21 20 19 19 22 21 21 21 21 22 21 19 16 14 10 10 19 22 19 15 11 13 11 15 16 15 15 16 16 14 16 16 15 15 16 17 15 15 14 13 13 10 9 9 9 8 10 10 10 13 12 10 8 10 11 13 12 10 10 11 10 11 12 11 9 9 11 11
9 11 13 13 8 8 7 7 5 7 11 10 4 6 13 11 6 12 14 14 15 16 16 15 17 19 18 18 19 19 20 21 22 21 21 22 22 23 20 17 13 12 13 17 20 14 7 12 16 18 19 13 17 17 16 15 15 16 16 17 15 16 16 16 16 15 15 15 14 12 11 12 10 10 9 11 11 11 14 15 12 13 13 13 12 11 8 9 11 10 11 11 11 11 13 13 13
5 7 10 12 8 6 7 6 7 6 12 8 4 7 13 10 12 11 15 13 12 14 14 16 18 18 19 20 18 19 21 21 20 19 20 18 18 18 17 16 15 15 16 18 15 15 14 9 7 10 12 11 13 13 13 13 14 15 14 16 16 17 17 16 14 15 15 14 14 15 15 14 13 13 11 11 12 12 13 13 14 15 13 11 11 9 10 9 9 11 10 10 11 11 10 11 12
10 7 15 15 15 16 11 10 12 11 15 7 3 9 18 10 8 7 13 13 13 13 15 15 18 18 15 16 19 21 22 21 23 23 22 20 18 15 13 11 8 7 8 8 9 13 11 10 14 15 16 15 10 8 8 8 11 12 11 14 15 15 16 15 14 13 14 14 13 14 12 10 12 12 12 10 12 15 14 14 15 14 12 11 10 8 9 9 8 9 8 7 8 10 9 10 10
7 5 13 13 13 16 9 14 11 7 6 5 6 6 4 15 6 10 12 12 14 15 16 17 20 20 21 25 25 24 24 24 24 23 23 21 19 17 15 11 7 6 8 9 10 7 7 10 15 19 17 17 12 7 10 10 14 17 15 15 13 14 13 12 10 9 11 12 13 12 11 11 11 10 8 9 13 17 18 16 17 16 14 11 9 9 9 9 9 10 8 8 9 8 10 9 9
9 8 14 18 13 16 10 5 4 9 10 11 14 12 12 9 9 14 8 12 16 16 19 21 20 19 21 23 23 23 23 24 25 23 23 23 22 22 20 17 13 9 4 10 11 5 11 14 10 10 15 11 13 12 11 8 7 14 16 14 15 11 12 12 13 12 12 10 12 11 11 10 8 8 10 11 11 13 17 19 19 19 16 13 11 10 10 9 8 9 10 9 10 8 10 10 10
12 9 15 6 5 10 17 14 6 7 10 12 7 17 11 4 10 7 11 14 16 18 18 19 19 21 23 23 23 24 24 24 24 25 24 22 21 21 21 20 19 18 11 7 4 5 5 9 10 10 5 5 10 6 9 10 9 9 14 15 16 14 11 10 10 13 11 11 10 10 8 10 10 10 11 10 11 13 15 18 19 19 16 13 13 11 10 9 7 9 9 8 8 9 9 7 8
15 15 7 9 11 8 10 13 6 7 8 9 7 6 7 3 7 9 14 15 16 18 18 20 22 21 21 20 21 22 23 24 25 24 24 23 23 23 23 22 21 21 21 18 12 3 6 9 6 7 9 11 7 7 8 10 8 11 12 17 20 18 11 9 9 10 10 12 12 10 11 11 9 9 11 11 11 12 14 16 17 16 15 13 11 11 9 10 8 7 8 9 8 9 9 9 7
6 5 4 3 11 7 7 16 12 15 7 8 4 9 8 7 6 9 11 15 16 16 17 17 19 18 17 17 19 20 21 23 22 21 21 21 21 21 21 20 19 19 19 19 16 11 10 10 5 6 8 10 7 7 6 7 9 10 13 13 18 18 14 10 11 12 12 12 13 13 13 12 13 11 12 11 12 13 12 15 15 16 14 12 11 10 9 9 9 8 8 8 9 9 10 10 9
12 16 11 16 8 7 11 5 9 13 14 9 16 7 7 6 13 10 16 16 16 15 16 17 19 18 17 18 18 17 18 19 19 19 18 19 19 19 19 18 18 16 17 18 19 17 10 7 8 8 9 8 9 12 11 12 11 8 9 11 12 15 15 19 12 13 12 11 13 14 15 14 11 11 12 12 12 13 14 15 15 15 15 13 12 9 8 10 10 9 7 7 8 9 10 9 10
8 11 7 3 5 4 6 10 10 7 9 13 16 9 5 9 13 12 16 15 17 16 15 17 18 20 20 18 17 16 16 16 16 16 16 18 18 19 19 19 19 21 23 24 22 23 21 17 11 7 4 3 7 13 13 13 13 13 8 6 9 12 14 19 17 15 15 14 12 13 11 10 11 10 11 12 12 12 14 14 14 15 14 14 13 11 9 10 11 10 8 8 10 9 7 8 8
Wind_Speed
2 1 1 0 2 1 1 1 0 2 2 4 3 1 5 3 7 3 1 2 2 1 1 5 7 4 3 5 13 9 6 3 2 5 3 1 3 10 12 13 12 11 12 9 8 9 9 12 16 17 17 17 17 17 17 18 17 17 17 17 16 16 17 18 19 19 19 19 18 18 19 19 19 18 18 18 19 18 17 18 18 18 18 18 17 16 15 14 14 13 13 13 14 14 14 13 13
1 2 2 1 0 1 1 1 2 1 2 3 7 2 5 3 1 3 1 1 1 0 3 8 11 13 16 14 10 5 8 6 1 3 3 5 7 8 11 12 14 14 10 9 9 9 8 10 15 15 17 17 16 17 18 18 18 17 17 16 15 16 16 18 18 18 18 18 18 18 18 18 18 18 18 19 19 16 15 17 17 18 18 17 17 17 16 14 13 12 12 11 12 12 12 12 12
2 4 4 4 2 1 0 1 0 1 1 3 7 6 4 4 4 3 3 2 3 2 6 6 6 3 2 2 7 4 1 4 10 6 5 6 12 4 8 10 10 11 12 8 9 9 7 9 14 15 16 16 16 17 18 18 18 17 16 16 16 17 17 18 18 18 18 18 17 17 18 18 17 17 17 18 18 16 16 15 17 17 17 18 18 17 16 15 13 11 11 10 10 10 11 12 12
3 1 1 1 1 1 1 2 2 4 2 6 5 4 3 3 4 6 5 4 3 1 1 3 6 5 6 11 5 7 6 3 4 9 6 6 4 9 9 11 10 9 8 8 8 9 8 11 14 14 15 16 16 17 17 18 18 17 16 16 16 16 17 17 17 17 17 17 17 17 18 17 17 16 15 17 18 16 16 14 14 16 18 17 17 17 16 14 12 12 11 10 10 11 11 12 12
2 1 2 1 2 1 1 2 3 4 5 4 3 6 3 3 4 4 2 5 6 2 3 5 5 3 6 6 0 1 4 5 7 4 5 4 9 10 11 11 10 9 9 8 8 9 10 16 13 14 15 16 17 17 17 18 18 17 16 16 17 16 16 17 17 17 17 17 17 16 17 16 16 15 15 17 17 16 13 13 14 15 15 16 16 16 15 13 12 11 10 10 10 11 11 11 11
1 1 0 2 0 0 2 1 3 6 5 2 1 5 6 5 4 4 3 3 2 0 6 3 4 3 4 3 1 3 9 7 4 3 7 7 11 13 13 11 10 10 8 7 8 8 10 15 14 14 15 16 16 17 17 18 18 17 16 16 16 16 17 17 17 17 18 17 17 16 16 16 15 15 17 17 16 15 16 16 14 14 14 15 16 16 15 13 12 10 9 9 10 10 10 10 10
0 2 1 1 1 1 3 2 5 4 8 6 5 7 9 8 4 0 2 0 2 4 1 6 13 10 7 0 4 2 2 6 5 7 8 12 12 13 12 11 11 10 9 7 7 9 13 15 15 15 15 16 16 18 18 17 18 17 16 15 15 16 16 16 16 17 17 17 17 16 16 15 15 16 17 17 16 15 15 15 15 15 14 15 16 16 15 13 11 10 9 9 9 9 10 10 9
0 1 1 1 1 1 0 3 7 4 6 7 3 6 12 11 5 0 0 1 1 1 2 8 5 7 1 3 3 2 2 1 7 12 14 13 13 12 12 12 12 10 9 8 7 8 16 15 15 14 15 16 16 17 17 17 17 17 16 15 15 16 15 15 15 15 15 16 17 16 15 15 15 15 15 16 16 16 16 16 15 15 16 16 16 15 13 12 11 9 9 8 8 9 9 9 9
1 1 1 3 1 0 1 4 6 3 6 8 12 9 13 7 1 0 2 0 1 5 4 4 2 9 2 5 2 1 2 6 10 16 14 14 13 12 10 12 13 10 10 8 8 8 10 14 14 14 15 15 17 16 16 17 17 16 16 15 14 13 13 13 14 13 13 13 14 15 15 15 15 15 15 15 15 17 16 16 15 16 15 15 14 13 13 12 10 10 8 8 8 8 8 8 8
1 1 0 2 2 2 2 6 1 5 4 6 9 9 3 1 1 1 1 4 3 5 2 5 2 8 8 7 3 1 0 6 12 12 12 12 12 12 12 13 14 12 9 9 8 9 8 16 14 14 14 16 16 16 16 16 16 15 14 14 13 12 12 12 12 12 12 13 13 13 13 13 13 12 12 13 16 16 16 16 16 16 15 15 13 12 11 11 10 10 9 8 7 7 7 7 10
1 0 1 1 1 3 4 6 4 8 5 5 3 6 5 0 1 0 1 3 0 6 5 9 8 9 5 3 0 1 3 7 11 11 8 10 13 13 12 12 13 13 11 10 9 7 7 10 16 13 14 14 14 15 15 15 14 13 13 13 12 12 12 12 12 12 12 13 13 13 12 12 11 11 11 14 16 16 16 16 16 16 15 14 13 12 10 10 10 10 9 8 7 6 7 10 12
1 0 1 0 3 3 4 2 4 8 11 3 1 3 1 1 0 1 2 5 4 5 3 2 6 6 5 2 1 2 4 5 6 7 11 15 13 14 12 9 12 12 13 10 9 7 8 9 10 15 15 13 13 14 14 14 14 13 14 13 12 12 12 12 12 12 12 12 12 13 13 12 12 12 12 15 16 16 15 16 16 15 14 13 13 12 10 9 10 9 9 7 6 6 8 10 11
1 0 1 1 3 2 4 4 6 7 4 2 3 2 1 3 1 4 3 6 6 9 2 4 13 1 3 1 0 3 5 3 4 8 11 13 12 11 12 11 12 13 12 11 10 8 7 7 8 8 12 16 14 13 14 14 13 14 13 13 13 13 13 12 12 12 12 12 12 13 13 12 12 13 14 15 16 15 16 16 15 14 14 13 13 11 10 9 8 8 8 7 6 6 8 10 11
3 4 4 2 1 2 3 5 4 2 1 3 2 1 1 1 0 4 5 7 5 4 5 13 6 7 4 4 2 4 4 3 5 7 11 13 11 12 13 12 13 12 12 11 10 9 7 7 7 7 10 9 9 13 14 14 13 13 14 13 13 13 12 12 12 12 12 12 12 13 13 13 13 16 15 15 16 15 16 15 14 14 14 13 13 12 10 8 8 7 7 7 6 5 8 9 10
4 1 1 1 4 1 4 3 4 0 2 1 3 1 1 1 1 3 11 9 3 2 5 2 5 4 4 8 4 7 6 6 7 6 11 13 13 12 14 12 12 11 10 10 10 9 8 7 6 6 7 7 8 6 7 11 13 13 12 12 11 11 11 11 11 11 12 12 13 13 13 14 15 17 16 16 15 16 15 14 14 13 13 13 13 11 10 9 8 7 6 6 4 4 6 7 9
5 2 1 1 4 1 6 2 2 3 2 2 3 0 2 1 1 3 2 8 3 2 4 3 3 2 5 12 6 12 12 11 14 9 11 13 11 11 13 12 11 10 8 8 9 7 7 7 6 6 6 7 6 5 6 7 11 12 11 11 10 10 11 10 11 10 12 13 13 14 14 11 12 12 17 13 16 16 13 9 12 13 13 13 12 11 10 9 8 7 6 5 3 4 5 7 6
1 2 1 1 7 3 5 1 2 1 2 3 2 4 2 1 5 2 2 4 11 2 1 2 0 3 10 3 7 15 15 16 10 4 8 10 10 9 10 10 9 7 6 6 8 7 7 7 7 6 6 6 5 6 6 6 9 13 11 13 13 12 12 12 11 12 11 12 11 11 9 6 5 6 10 9 15 9 10 11 13 13 13 12 12 11 9 8 7 7 6 4 3 3 4 5 5
1 2 4 5 5 3 4 2 1 0 0 4 4 2 4 3 6 1 4 10 7 4 4 2 10 9 6 8 16 15 14 15 13 14 8 11 9 9 9 9 9 8 7 5 6 7 7 6 7 6 6 7 8 7 6 6 7 10 8 7 7 10 11 11 9 6 7 5 10 8 5 5 5 6 6 9 6 9 10 13 12 12 13 12 11 10 9 7 6 7 5 4 2 2 3 3 3
4 1 3 9 5 5 1 2 7 1 0 1 4 2 3 2 1 0 6 1 3 4 2 3 7 11 15 16 14 14 14 11 9 10 10 11 10 13 11 9 9 9 7 6 6 7 7 7 7 9 9 9 9 8 7 6 7 6 7 7 7 9 9 8 6 7 5 5 4 4 4 4 4 5 5 7 7 10 9 12 12 12 13 12 12 11 9 7 5 5 5 4 3 2 2 3 5
5 4 5 9 4 3 4 5 5 3 4 2 3 2 4 4 1 1 3 4 1 6 4 1 4 9 11 11 12 12 13 12 7 7 9 12 12 13 13 11 10 9 8 7 8 7 7 5 5 5 6 7 8 7 6 6 6 6 7 7 6 6 6 6 7 7 6 5 5 5 4 4 4 5 10 14 12 6 7 11 12 12 12 12 12 8 8 7 5 4 3 3 3 3 2 3 5
2 4 6 5 4 2 7 1 6 2 1 1 1 2 5 5 3 2 5 6 2 2 5 8 10 14 13 10 11 11 11 9 6 8 8 12 8 6 10 12 10 10 8 8 7 8 7 6 6 5 4 6 5 4 5 5 5 6 5 6 6 6 6 6 6 5 5 6 6 5 5 4 4 4 4 5 4 5 5 4 5 4 4 5 8 4 3 3 3 1 1 1 1 2 2 4 5
1 7 8 7 4 3 9 6 9 1 3 4 2 4 2 3 2 2 2 0 4 7 7 5 13 16 17 14 11 9 9 9 7 8 9 14 14 10 11 10 8 3 7 9 8 8 8 6 5 5 5 3 3 3 3 4 5 4 5 5 5 4 6 6 5 5 6 6 6 6 5 5 5 5 5 5 4 5 5 4 5 5 4 4 4 4 3 3 2 1 1 0 0 1 2 4 4
6 7 5 8 7 5 4 1 5 4 1 2 1 0 1 3 4 4 0 2 4 8 6 7 15 15 14 14 13 10 10 10 8 7 10 15 16 11 9 6 3 4 2 2 3 4 4 3 3 3 5 5 5 4 5 5 5 5 4 4 5 5 5 6 5 5 6 6 6 7 7 5 5 5 6 5 5 5 5 5 5 5 5 4 3 5 3 3 3 3 1 1 0 0 1 4 5
8 10 5 8 8 10 5 4 7 5 8 3 3 2 2 0 3 1 5 5 4 2 5 12 13 13 14 14 12 13 12 10 10 12 13 15 16 11 12 11 6 4 3 2 2 2 2 3 3 4 5 6 6 4 4 4 3 3 4 5 5 6 6 6 5 6 6 7 7 6 7 6 6 6 5 6 5 5 5 5 4 5 5 5 4 5 5 4 4 3 3 1 1 0 2 4 5
8 10 8 7 5 6 8 6 4 4 5 5 4 2 4 3 2 1 7 5 1 8 11 13 14 14 11 12 11 10 8 9 12 13 11 11 13 10 7 9 12 11 5 3 1 2 1 1 2 3 4 6 3 3 5 4 4 2 3 3 4 6 5 5 5 6 6 6 6 7 7 7 6 6 6 6 5 5 5 5 5 5 4 4 4 4 4 5 4 4 4 3 2 1 2 5 6
5 11 6 5 5 5 6 4 7 8 4 4 3 2 5 8 1 3 9 5 5 10 11 13 14 13 11 11 11 10 10 11 12 13 12 10 13 15 12 9 11 10 8 4 3 3 2 2 2 4 6 7 4 3 5 4 5 5 2 1 2 3 4 4 5 6 6 6 6 6 7 7 7 7 6 6 6 6 5 5 5 4 4 3 4 4 4 4 5 4 3 3 3 2 5 4 6
3 5 8 7 6 5 1 2 1 1 1 3 2 2 3 4 4 6 4 2 8 10 10 10 13 12 11 9 9 8 11 11 13 13 12 11 11 12 11 9 6 6 7 8 3 3 4 2 3 4 4 4 3 3 4 4 4 4 3 2 1 3 4 5 5 5 5 5 6 6 6 7 7 6 7 7 6 6 5 5 5 4 4 4 4 5 4 4 4 5 5 5 3 5 5 5 5
6 8 4 3 5 4 3 1 3 1 1 4 4 3 5 4 0 6 8 2 11 11 9 10 8 10 10 11 10 9 9 11 12 13 16 14 12 11 11 10 11 11 10 6 4 3 4 5 1 4 5 4 3 3 4 5 5 6 5 4 4 4 4 4 4 5 6 6 6 6 6 6 6 6 7 6 7 7 6 5 4 4 5 5 5 5 4 4 4 1 2 4 6 6 5 5 5
6 4 3 5 5 4 2 3 1 3 1 4 3 2 5 3 6 5 6 6 7 13 12 10 9 9 11 10 9 10 10 12 12 11 12 11 12 13 14 12 13 13 8 9 7 6 7 6 4 6 5 4 4 4 4 4 4 4 6 6 5 5 4 4 5 5 5 6 6 6 6 7 6 7 6 7 7 6 6 6 5 5 4 3 5 5 4 3 4 4 6 7 6 6 7 6 5
4 2 3 3 5 6 8 1 1 1 3 5 4 3 9 7 10 9 5 8 6 9 10 9 7 8 10 9 9 9 7 10 9 10 11 11 12 12 14 12 13 11 9 11 12 9 5 4 4 3 6 6 5 4 5 5 5 5 5 6 5 6 5 5 5 5 6 5 5 5 6 6 6 6 7 6 5 5 5 5 4 2 1 2 4 5 4 5 5 7 7 7 5 6 7 6 7
1 3 2 1 3 7 1 2 2 5 3 6 5 3 10 7 10 9 7 6 11 11 11 9 7 8 8 8 8 8 6 7 10 11 10 11 10 8 11 13 14 13 10 11 15 14 8 5 4 5 7 6 5 6 6 7 6 6 6 6 6 6 6 6 6 5 5 5 5 5 6 6 6 6 6 6 5 5 5 5 4 3 2 2 4 5 7 5 6 7 7 7 5 5 5 4 6
2 2 3 3 4 9 2 3 4 7 1 6 5 4 11 10 8 9 7 5 14 12 11 8 8 8 8 7 8 8 6 7 10 10 10 11 10 9 12 13 11 12 14 12 12 12 11 7 2 4 6 6 6 7 6 7 7 6 6 6 6 6 6 6 6 6 5 5 5 6 6 6 6 6 6 6 6 5 5 5 5 3 3 4 5 5 7 6 6 7 7 9 7 5 6 5 4
4 3 3 3 3 6 8 5 7 10 3 3 9 7 3 6 8 10 6 2 11 11 10 7 9 7 7 7 7 8 8 9 10 11 11 11 10 10 10 10 11 12 10 5 7 13 12 12 3 2 4 6 7 7 6 5 5 5 6 5 5 5 5 5 5 5 5 6 5 6 6 6 6 6 6 6 7 6 5 6 4 3 5 5 3 6 6 6 7 7 5 4 8 6 6 7 5
4 1 4 3 3 2 4 7 4 6 8 4 8 7 7 5 6 4 6 5 12 15 14 11 9 7 7 7 8 9 8 10 12 11 13 11 9 8 7 8 9 8 9 7 1 6 12 11 9 5 7 7 7 7 7 5 3 3 4 4 5 4 4 4 4 5 5 5 5 6 7 7 7 7 6 3 3 4 4 5 4 5 6 6 5 3 6 5 6 7 7 3 5 7 6 7 6
6 2 3 7 2 3 7 3 5 5 9 11 7 8 10 9 6 6 7 5 9 11 13 13 11 8 8 9 8 9 9 10 12 12 13 11 10 8 8 8 8 8 7 8 7 8 11 12 11 12 10 8 7 6 3 2 3 2 2 4 4 3 3 3 4 5 5 5 6 5 5 5 6 7 6 5 4 7 6 4 4 5 7 5 6 5 0 4 5 5 8 5 3 3 7 6 6
4 1 3 3 4 7 4 5 9 11 8 10 10 10 11 10 6 6 2 5 2 5 7 9 9 7 7 6 6 8 10 10 11 12 12 10 10 10 9 8 9 9 8 10 11 11 14 14 11 10 8 8 6 6 5 4 4 4 4 2 3 4 4 5 4 5 5 5 6 6 6 5 4 6 7 8 2 1 5 4 5 5 7 7 7 7 4 3 6 8 8 8 7 5 4 5 6
3 1 1 6 5 5 4 7 8 7 7 8 9 7 7 7 7 2 2 3 6 5 2 1 1 4 6 7 7 9 11 12 12 13 13 11 11 9 8 9 10 10 10 12 12 12 14 14 12 12 9 9 9 8 7 7 6 5 2 5 5 4 6 6 5 5 5 5 7 9 8 6 6 6 5 8 8 5 5 5 6 5 5 6 6 8 6 4 4 7 6 5 8 7 3 4 4
4 3 2 9 7 8 5 6 6 5 4 3 5 6 6 6 8 4 3 3 1 6 5 6 10 9 9 9 8 8 7 7 11 10 9 7 8 7 8 9 13 14 12 14 15 15 13 15 15 13 11 10 10 9 8 8 7 7 6 6 4 5 5 7 6 4 5 6 6 7 8 7 2 4 7 5 6 6 6 5 5 6 6 5 5 5 4 4 5 6 6 6 3 7 6 7 7
2 3 5 6 8 4 9 3 6 3 2 4 2 7 6 7 5 7 5 1 2 4 11 12 11 8 6 9 6 9 10 14 13 13 10 9 8 8 9 9 11 15 17 17 17 15 14 13 13 13 12 11 11 11 10 9 7 6 6 4 6 4 2 1 1 2 3 5 6 6 7 8 8 6 5 6 6 5 5 6 6 6 6 6 6 7 6 4 7 8 8 8 7 2 3 5 8
2 1 3 7 5 1 5 4 7 7 2 1 2 5 3 6 3 6 4 4 3 3 7 9 12 13 12 13 13 14 14 15 16 15 14 11 10 11 11 10 11 13 13 12 11 15 16 14 15 15 13 13 12 12 12 11 9 7 5 5 4 4 3 3 3 2 3 5 5 5 5 7 9 7 7 6 5 5 6 6 6 6 6 5 7 8 8 7 6 6 6 7 9 8 5 6 5
4 6 3 3 2 3 4 4 4 3 4 3 4 3 3 5 3 6 8 6 5 9 9 4 4 6 8 6 6 13 16 15 14 12 12 11 13 14 16 14 12 13 14 14 13 14 14 19 18 18 16 15 12 13 13 10 8 7 7 6 5 5 4 4 5 4 5 5 5 4 5 5 6 6 6 6 6 6 5 6 6 6 6 5 6 8 8 8 7 7 8 8 9 10 9 6 7
3 4 7 5 3 4 4 1 5 7 4 4 2 3 2 5 4 4 7 4 9 9 10 8 2 3 3 4 4 2 1 4 12 17 17 15 15 13 13 14 14 13 14 15 13 9 8 13 14 13 10 10 10 9 8 8 9 9 9 8 8 5 7 8 9 9 7 8 7 4 4 5 5 5 5 5 5 6 6 6 6 6 6 6 6 6 6 5 6 6 7 9 8 7 11 8 7
5 4 4 4 2 1 4 5 3 1 2 2 3 5 2 6 5 3 4 9 10 9 12 10 9 8 7 0 7 7 7 7 5 4 4 6 7 8 7 8 7 7 2 3 4 6 5 5 10 11 11 9 7 6 9 8 8 8 10 10 9 9 9 6 6 6 6 5 4 5 5 4 4 6 4 4 3 4 4 5 6 6 6 6 5 6 6 8 7 6 5 7 7 7 6 10 9
3 3 4 1 1 1 4 2 3 2 1 2 8 3 3 2 5 2 4 12 9 12 13 13 13 13 11 8 7 4 11 10 7 7 7 6 7 9 8 7 5 4 2 3 3 3 7 5 1 5 7 8 8 7 9 9 9 9 9 8 8 8 8 8 7 6 5 4 5 5 5 5 5 5 6 4 5 5 5 6 6 5 5 5 6 7 7 6 5 5 6 6 5 6 8 9 8
3 4 6 3 5 3 3 2 4 2 4 3 7 2 3 1 5 11 10 11 7 10 10 12 13 13 12 12 12 13 9 8 9 9 9 8 7 7 6 6 4 2 2 4 6 6 5 5 7 3 2 4 7 9 10 10 8 9 9 8 8 6 6 6 5 5 6 5 6 4 5 5 5 5 5 6 8 8 7 6 5 5 5 5 6 5 5 6 8 8 7 7 7 6 7 6 7
4 5 3 1 2 0 1 3 3 1 3 2 1 0 2 1 9 10 6 9 8 6 8 9 11 12 14 13 14 14 12 7 4 9 9 8 6 7 6 3 1 4 4 2 5 6 6 5 2 2 6 7 7 9 10 10 8 7 8 8 9 7 7 6 6 7 6 6 7 6 5 5 5 5 5 5 6 6 6 5 5 6 6 5 5 5 6 6 6 7 8 8 7 7 6 6 8
1 3 3 2 5 2 3 5 3 3 1 3 4 2 4 2 6 7 6 3 4 7 5 9 11 13 14 14 14 14 12 11 10 10 6 1 2 1 0 5 11 10 10 10 6 1 9 9 7 5 8 7 7 9 8 9 8 8 8 8 8 9 9 9 8 8 7 6 7 6 6 6 5 6 5 5 5 5 3 3 5 5 5 5 5 4 6 7 7 7 7 7 7 7 6 7 5
4 1 2 1 2 6 4 4 6 2 3 5 5 4 5 4 1 4 5 6 8 6 8 11 11 11 11 11 12 14 13 12 12 13 13 14 14 14 14 11 8 2 4 4 6 5 5 6 10 7 8 7 8 9 9 9 8 8 7 8 8 8 9 9 10 9 8 8 8 7 6 5 5 5 5 5 6 5 5 4 3 4 6 6 7 6 6 6 6 6 6 7 6 5 5 6 6
5 5 6 6 2 2 1 3 1 2 3 2 2 4 7 5 2 4 6 6 8 9 9 8 10 10 11 12 12 11 12 13 13 12 11 12 11 11 10 8 7 6 7 10 11 9 5 7 4 9 13 9 10 10 9 8 7 7 6 7 6 6 8 9 9 9 8 8 7 7 6 7 6 5 5 6 7 7 7 6 6 7 7 7 7 7 6 6 7 6 7 7 6 7 7 8 7
3 4 5 6 2 1 1 1 1 2 5 3 1 5 5 4 6 6 7 5 7 9 9 9 10 11 12 12 11 11 12 13 12 11 11 10 9 7 6 5 7 5 2 1 4 4 7 6 5 6 6 5 8 7 3 4 6 5 4 5 5 6 7 8 8 9 8 7 7 8 8 8 7 7 6 7 6 7 7 7 8 9 7 6 6 6 6 5 6 6 7 6 7 7 6 7 7
4 3 8 7 6 4 2 2 3 4 7 3 2 2 5 5 3 5 8 6 8 8 9 9 12 11 10 9 12 13 14 13 13 13 13 11 9 8 6 4 2 1 3 4 3 1 4 5 5 6 9 7 5 4 4 3 4 3 3 4 4 5 6 7 7 7 8 8 7 8 7 6 7 6 7 5 7 7 5 5 7 7 6 6 5 5 5 5 5 5 5 4 5 6 6 6 6
1 2 5 7 4 7 2 6 5 2 1 1 2 1 2 5 1 6 7 6 9 9 10 11 13 12 13 14 15 14 14 14 14 14 14 13 12 11 8 7 5 2 5 3 1 2 3 4 4 5 7 8 5 2 4 4 3 3 7 7 3 5 5 5 5 6 6 7 8 7 7 6 6 6 4 5 8 9 9 7 7 6 6 6 5 5 5 5 6 6 5 4 5 3 6 6 6
3 3 3 8 6 9 3 2 1 5 4 0 1 5 3 2 5 6 5 8 9 9 10 11 12 12 13 13 13 14 13 14 14 13 12 13 13 13 11 11 8 6 2 6 6 0 1 4 3 4 4 4 3 4 4 4 4 5 2 3 7 4 5 6 7 7 7 6 6 6 7 6 5 5 6 4 8 8 9 8 6 7 6 5 5 4 4 4 5 6 5 5 6 4 6 6 6
4 2 8 1 3 4 6 5 1 2 4 2 1 9 6 1 2 2 6 9 10 11 11 11 11 12 13 12 12 13 14 14 14 14 13 13 13 14 12 11 12 11 8 3 3 3 3 4 2 4 2 2 1 0 2 2 3 3 6 3 3 7 6 6 5 7 6 6 5 5 5 6 6 6 6 5 6 8 8 9 8 7 6 5 6 4 3 3 4 5 6 5 5 6 6 5 5
8 7 3 2 2 2 4 4 1 2 1 1 3 4 1 2 1 4 6 7 8 9 9 10 12 12 12 12 13 13 14 13 13 13 12 13 13 13 12 13 13 13 14 12 7 1 3 4 1 1 3 5 2 1 2 5 5 4 6 7 3 6 7 6 5 6 6 7 7 5 6 6 6 5 6 6 7 7 8 9 8 7 6 7 5 4 4 4 4 5 5 5 5 6 6 6 5
4 2 2 1 4 3 2 5 4 6 3 3 0 5 1 2 3 3 6 9 7 7 9 11 12 12 10 10 11 11 12 11 11 11 11 12 12 13 13 13 12 12 12 12 11 7 7 6 1 3 5 4 2 1 2 2 4 4 5 7 9 7 7 6 6 7 7 7 6 6 6 6 7 6 6 7 7 7 8 9 9 9 8 6 6 5 5 5 5 4 5 5 4 5 5 6 6
4 8 4 5 1 3 4 1 2 5 4 3 6 1 2 1 6 5 10 10 10 9 9 10 11 11 11 12 11 10 10 10 10 10 10 11 12 12 12 11 11 10 10 11 11 11 7 4 5 2 3 0 3 6 7 7 6 5 5 6 5 4 2 8 6 6 7 7 6 6 6 6 5 6 7 7 7 8 8 9 9 9 9 7 7 5 5 5 5 4 4 4 4 4 5 5 5
3 5 3 2 1 1 2 3 3 3 3 3 6 2 1 4 5 5 9 8 9 9 9 10 12 12 13 11 11 10 9 10 9 9 10 10 11 12 11 10 11 11 12 13 12 11 13 11 7 6 1 1 5 7 8 8 8 8 6 3 4 5 6 0 8 6 6 7 7 7 6 6 6 6 6 7 7 7 8 8 9 9 8 8 7 6 6 6 6 5 5 4 5 5 4 4 4
Wind_Direction
272 296 279 131 111 124 65 9 86 304 67 260 284 193 255 224 227 299 288 333 34 273 314 8 39 17 104 144 121 103 28 122 207 132 215 202 93 116 125 125 133 130 133 140 144 142 142 140 135 132 128 126 126 126 127 126 125 124 121 120 120 118 116 114 113 112 112 111 111 111 111 111 111 112 112 109 105 105 104 100 98 98 98 100 99 97 94 93 93 88 85 88 83 86 82 82 83
286 10 3 136 186 94 330 138 102 359 38 340 253 141 257 241 229 227 196 151 207 228 64 77 73 81 95 118 129 99 34 19 56 124 75 100 105 105 130 133 140 136 135 137 139 135 137 138 134 131 128 127 128 128 126 129 127 125 122 122 122 120 118 116 115 114 114 114 114 114 114 114 115 115 114 111 109 110 106 104 101 97 97 98 99 99 97 94 93 88 90 89 91 87 85 83 81
34 27 6 48 32 93 229 48 222 161 102 264 276 209 278 330 164 222 202 186 217 202 119 106 108 84 120 91 36 59 231 80 90 89 99 142 112 137 127 121 121 122 128 134 135 131 130 134 132 130 128 128 129 129 128 130 128 126 123 123 124 122 121 119 118 118 117 117 117 116 116 116 118 119 116 112 113 110 105 107 103 99 95 93 95 98 97 90 86 78 78 81 78 76 72 69 67
79 83 106 64 358 18 64 28 102 130 168 216 297 265 201 199 198 202 206 218 243 107 121 30 49 304 106 59 89 76 99 121 98 129 137 172 150 137 127 117 116 114 114 127 132 127 126 132 130 130 129 128 131 129 130 131 129 127 127 127 126 126 124 122 120 121 120 119 119 118 119 119 121 121 114 112 114 115 113 109 106 102 96 93 90 88 87 83 77 73 68 65 63 60 58 58 57
74 23 125 81 104 359 104 195 169 115 212 198 201 278 293 244 224 251 263 258 268 125 102 141 87 11 74 109 166 122 168 109 132 131 110 96 121 129 123 120 118 114 114 123 128 124 129 132 130 131 131 131 132 131 133 134 132 131 131 130 130 129 127 125 124 123 122 121 121 121 120 122 122 117 114 116 116 115 105 98 94 95 95 90 89 87 85 81 76 70 66 61 59 56 55 56 57
75 80 332 90 148 197 39 353 278 229 227 169 283 276 290 255 226 206 255 256 261 75 128 87 135 156 51 6 31 130 142 153 159 91 126 139 136 132 128 122 116 111 111 113 121 125 131 131 132 133 134 134 134 133 136 137 134 133 133 132 132 132 131 129 128 126 124 123 122 123 124 123 121 117 119 116 116 111 101 103 107 105 99 98 96 92 88 84 78 72 66 61 59 59 57 58 60
16 48 25 24 328 75 154 185 245 229 264 179 237 259 260 270 257 291 4 122 287 74 16 121 112 99 80 175 35 4 310 140 130 138 133 138 131 130 128 119 110 107 109 112 118 124 131 132 134 136 136 138 136 137 138 138 135 134 134 134 135 135 132 130 127 127 126 126 124 125 126 125 122 121 120 118 117 115 114 112 103 96 96 95 92 91 90 87 81 73 65 62 60 59 61 62 61
155 108 206 101 253 63 248 236 244 160 274 181 225 243 256 253 241 23 251 115 335 95 85 136 121 94 261 27 148 281 60 6 107 112 124 131 132 129 121 118 110 111 116 118 119 129 135 132 137 138 140 141 140 138 138 138 135 135 135 137 137 136 132 129 127 126 127 128 127 126 127 126 124 123 122 122 122 120 117 111 108 101 98 99 97 95 93 91 87 79 72 66 62 61 59 60 60
2 88 297 73 340 357 321 255 256 215 264 280 276 227 240 239 270 170 342 270 355 69 115 130 142 91 230 65 60 265 30 87 97 118 126 131 130 125 118 118 116 117 117 120 122 123 126 136 137 140 143 144 142 140 140 139 137 136 138 138 137 134 130 127 127 127 126 125 127 127 127 128 128 128 128 125 126 124 120 113 110 109 107 102 101 100 100 98 94 88 78 71 66 59 53 51 52
27 98 254 149 133 279 276 277 227 236 210 237 236 262 228 280 307 50 212 25 110 82 84 53 35 117 139 107 111 346 184 106 111 114 125 131 126 117 114 112 112 114 115 117 117 121 134 139 139 141 145 145 143 142 142 139 138 138 138 136 134 133 130 129 130 130 128 127 127 128 126 128 129 129 129 128 126 124 120 115 113 114 111 104 101 98 97 98 95 91 87 78 68 56 49 42 40
27 335 175 57 16 229 239 274 266 299 263 265 252 236 235 254 140 217 46 119 332 110 114 91 60 110 95 105 112 305 104 110 115 124 117 110 113 115 107 110 114 117 115 114 117 122 132 137 143 142 143 143 143 141 141 140 138 137 134 134 135 135 135 135 134 133 130 128 128 126 126 128 128 127 131 132 130 125 121 119 116 114 110 107 103 101 99 100 98 98 94 85 72 58 44 41 41
27 84 25 119 212 186 242 214 265 279 294 248 273 318 301 187 132 27 7 81 82 80 106 323 152 132 78 83 15 87 108 99 112 109 97 109 113 111 110 110 111 116 120 117 113 117 136 146 138 146 143 142 142 142 141 140 139 138 137 138 140 141 141 139 138 134 133 129 125 124 125 128 130 130 131 130 120 120 122 120 118 116 115 111 104 103 103 100 101 102 101 92 75 56 44 45 42
134 150 93 92 242 167 238 276 266 261 297 222 189 256 182 100 188 154 112 120 124 99 23 101 141 79 95 93 231 81 121 149 112 95 103 108 113 109 110 112 115 119 117 116 115 116 125 138 142 140 149 147 143 142 143 142 140 141 142 145 147 148 146 142 139 137 135 130 127 130 129 130 130 126 128 127 124 126 128 125 122 121 116 111 109 107 105 104 104 104 98 88 72 52 49 47 45
150 179 118 240 276 239 269 252 263 283 280 249 268 255 290 115 282 116 109 61 6 80 171 128 112 119 75 88 106 157 175 151 93 70 107 109 113 115 114 115 115 115 116 117 116 122 124 133 141 144 147 146 148 145 146 144 144 146 148 151 152 150 145 141 139 139 137 134 131 134 133 131 131 130 130 129 128 130 132 129 124 122 116 115 113 113 114 111 105 99 92 84 70 57 55 53 53
193 193 104 186 274 18 244 218 215 139 259 282 273 14 311 297 97 90 110 96 34 129 118 63 164 108 210 161 197 185 168 149 80 51 110 113 115 116 113 112 108 108 110 116 118 126 129 129 134 140 144 148 146 144 147 151 148 150 149 147 147 145 141 141 142 140 141 137 137 138 139 138 141 138 136 132 132 135 137 131 129 124 118 118 117 117 118 119 115 107 95 88 75 56 60 60 60
185 111 129 206 256 247 272 221 264 145 228 206 276 23 98 304 230 104 196 133 167 168 161 153 203 196 174 167 186 155 145 76 32 0 113 113 111 107 106 103 102 105 111 120 122 127 134 137 142 149 152 150 144 141 146 147 150 146 143 146 145 143 141 141 143 142 145 144 142 145 146 148 147 144 138 135 137 138 136 133 131 124 122 122 121 122 125 128 126 116 108 96 76 51 49 57 66
106 142 282 243 280 224 264 202 110 106 244 251 326 41 91 330 321 41 67 120 130 130 24 35 332 28 153 159 116 117 81 74 90 351 143 125 118 110 104 103 108 110 116 129 128 134 138 145 153 150 147 138 136 142 148 147 154 151 153 155 150 147 147 148 147 146 147 151 147 146 137 128 138 137 138 142 140 137 137 137 134 129 126 127 124 125 128 131 130 125 117 96 81 50 41 48 55
107 206 191 253 219 250 229 249 199 246 84 315 24 11 74 11 337 77 53 25 56 50 47 354 43 41 65 66 91 96 109 128 159 153 166 133 126 122 118 120 124 129 133 139 129 140 149 161 160 148 145 154 159 159 156 158 160 159 154 153 148 155 156 154 153 147 147 152 155 147 131 138 129 131 140 136 131 142 143 144 138 132 131 130 129 127 129 134 137 129 125 121 96 50 24 40 35
171 201 149 237 198 230 165 282 308 204 156 232 314 87 81 321 230 346 81 221 111 56 3 48 75 68 81 90 100 110 130 146 156 155 138 135 136 134 127 121 125 133 143 144 142 160 169 166 168 168 171 166 162 162 162 165 163 155 153 149 155 159 162 155 151 152 147 153 144 126 130 123 129 128 124 139 138 144 146 145 139 136 135 134 132 131 134 135 134 133 136 136 105 52 34 30 44
219 168 226 239 213 250 288 252 257 229 160 57 356 344 66 295 339 137 131 176 148 149 140 23 91 101 96 101 103 130 147 148 153 138 137 148 147 136 129 131 142 143 144 154 163 176 175 165 162 163 165 168 168 169 164 166 162 158 161 158 154 153 152 152 153 155 152 144 134 126 126 128 127 136 151 149 142 142 148 145 142 140 137 137 136 133 134 134 141 136 143 111 75 39 32 36 53
260 151 222 236 222 284 266 274 247 168 95 136 348 336 39 326 289 66 143 99 284 281 220 169 158 132 122 118 134 148 152 128 121 172 141 124 77 71 127 143 147 143 154 166 168 172 176 177 165 159 162 173 169 165 163 166 165 168 161 158 156 154 148 145 147 147 140 138 135 131 133 125 131 142 122 123 121 135 127 129 132 119 123 136 136 120 133 136 125 110 60 62 50 41 25 38 64
311 213 225 222 238 246 265 257 258 88 17 75 23 27 314 306 355 348 173 138 214 211 222 214 130 138 137 145 156 155 140 141 158 159 78 72 67 53 32 33 25 122 168 167 171 169 177 176 174 159 142 147 158 164 136 164 172 180 169 161 151 142 141 144 147 142 136 138 141 138 128 123 131 127 123 130 136 134 134 139 133 134 136 141 134 137 134 133 146 148 115 80 12 41 49 64 78
240 270 257 237 224 217 251 188 231 123 98 117 42 264 24 33 296 259 175 212 238 212 204 134 142 141 144 144 146 147 151 160 146 94 79 87 82 84 90 33 16 152 210 113 140 159 158 174 182 147 154 164 187 177 163 173 179 182 172 160 149 155 151 150 152 148 142 144 145 144 138 142 138 134 134 140 142 144 146 151 151 144 151 157 153 139 150 165 159 157 167 199 70 263 72 90 86
213 243 232 242 229 231 263 240 184 163 140 176 200 185 254 150 324 288 326 273 247 194 71 113 125 126 139 143 154 155 159 156 95 96 99 104 117 148 135 123 119 148 188 300 21 59 168 193 189 162 177 185 189 164 157 177 185 176 174 170 162 166 154 153 148 149 146 151 150 149 146 149 149 147 148 148 154 150 156 154 150 152 158 172 170 167 165 172 179 165 156 188 217 183 109 93 87
215 240 233 245 220 216 229 201 218 172 185 193 143 165 250 204 222 350 274 253 29 97 113 125 131 136 146 137 149 150 131 109 108 102 104 110 114 114 100 128 150 165 144 239 236 84 343 280 219 176 193 201 189 147 163 170 170 170 188 178 173 167 144 143 145 143 148 151 153 153 151 151 154 153 159 159 152 154 152 149 156 172 170 177 170 194 176 174 174 171 167 178 194 167 112 87 94
210 219 229 239 231 236 231 219 206 211 207 147 94 222 260 251 339 258 243 269 149 125 123 137 140 142 141 146 152 149 147 133 114 111 119 126 128 129 138 152 159 163 154 175 257 120 60 336 273 216 202 202 167 157 165 161 160 167 174 146 205 138 127 131 142 147 150 151 157 161 161 157 162 162 161 156 154 153 150 154 154 170 185 171 175 190 196 168 169 167 163 155 167 141 85 98 105
242 267 239 236 247 247 255 149 304 262 255 185 162 257 276 275 148 278 298 216 143 123 130 148 154 142 146 151 152 149 141 133 126 123 118 125 130 137 148 145 131 127 165 176 174 250 164 164 256 249 218 204 160 165 152 145 129 132 117 102 102 123 134 140 145 147 150 156 161 166 165 165 159 160 159 160 156 149 148 155 171 167 176 190 189 202 196 180 169 171 173 168 124 89 107 111 116
308 269 298 277 279 259 235 272 249 232 310 155 129 218 232 274 166 229 254 176 145 131 144 161 148 139 151 155 157 155 144 143 137 129 134 140 145 148 158 152 151 159 178 173 169 218 208 149 259 267 229 193 163 163 151 150 160 143 126 131 145 146 146 142 144 149 156 162 166 168 166 166 160 160 161 163 159 153 154 164 177 176 190 186 188 198 204 200 161 169 133 93 110 120 111 109 121
273 264 278 293 350 343 276 207 224 133 265 179 131 325 299 290 240 238 234 146 151 145 162 171 153 146 156 162 156 162 162 153 145 137 143 145 148 165 162 170 154 164 168 157 156 206 207 165 131 267 234 183 170 173 157 158 158 148 143 154 160 155 149 143 152 166 165 168 170 167 166 163 162 160 170 169 162 155 156 163 175 194 178 168 177 194 199 166 104 105 84 109 116 116 113 109 100
285 237 204 351 353 321 268 268 187 192 233 137 101 304 268 255 252 261 250 145 147 152 166 171 155 149 158 167 163 162 144 135 145 142 147 153 164 171 156 165 163 159 166 162 161 196 205 142 132 232 234 182 174 170 152 161 175 164 155 156 157 155 157 157 164 169 174 172 165 161 161 164 160 164 162 166 156 151 159 160 153 140 153 120 138 125 100 118 122 110 115 111 121 125 120 123 124
311 274 48 214 1 269 299 166 214 222 153 140 117 197 276 262 275 268 267 130 161 166 179 175 157 156 160 172 165 151 122 142 138 139 149 157 170 164 156 163 165 156 168 179 174 162 156 145 127 212 220 182 178 183 171 173 180 171 164 161 160 158 157 162 168 172 176 171 156 157 162 162 160 162 164 156 159 156 156 139 136 164 135 126 133 103 103 96 111 117 125 116 122 116 112 126 128
310 11 292 325 173 273 303 282 177 202 336 146 113 229 251 266 267 266 253 139 166 169 186 171 167 162 168 172 152 122 126 114 115 139 155 165 169 166 170 166 158 159 167 189 162 146 146 120 184 234 217 181 188 193 186 180 179 174 165 163 160 155 155 164 172 177 168 161 161 157 165 161 158 162 163 158 158 167 152 143 165 187 139 114 106 108 103 108 119 122 128 132 130 126 122 119 121
344 130 261 254 175 253 353 269 198 198 145 196 161 223 310 306 242 253 284 130 170 166 184 176 174 169 170 164 145 132 125 116 122 148 168 171 176 170 171 161 166 160 155 177 179 141 145 124 98 4 271 195 195 201 195 186 171 168 168 164 162 153 158 164 167 159 156 165 163 160 163 161 163 166 168 168 159 164 149 150 165 111 75 61 58 107 101 121 129 128 113 126 140 142 134 131 124
314 319 220 217 189 279 242 292 283 200 154 209 201 209 238 237 283 325 319 254 187 175 179 174 179 184 176 160 152 145 143 135 143 162 177 177 170 166 163 155 147 149 138 144 181 138 131 118 111 159 226 229 207 203 199 180 153 139 152 145 152 156 158 159 157 160 161 163 163 161 166 165 170 170 168 144 116 111 146 155 129 112 94 86 60 14 118 133 133 131 114 121 139 130 137 137 135
227 282 331 314 320 215 233 297 293 144 178 175 200 212 251 268 303 336 299 19 161 166 171 176 185 181 170 171 162 139 149 149 161 176 174 170 162 161 160 147 134 135 137 138 138 135 136 143 153 176 198 203 207 211 205 113 108 99 80 116 149 152 161 170 168 169 167 157 162 148 153 168 168 169 139 115 181 175 156 145 126 113 104 106 106 100 357 136 130 123 128 128 92 111 134 138 139
218 146 195 219 286 284 265 250 262 162 170 178 180 196 240 267 305 309 359 107 119 175 175 185 189 181 172 160 157 144 155 167 173 173 176 169 164 162 153 147 141 141 148 155 163 154 158 161 169 164 184 188 192 198 184 151 147 155 156 146 168 173 175 171 177 179 166 165 153 145 164 166 167 162 138 141 129 238 147 134 116 112 125 135 125 126 179 193 142 127 138 136 126 104 91 124 128
248 297 319 270 270 264 262 256 260 184 162 184 179 188 220 261 265 254 253 129 134 149 200 296 221 168 180 184 178 143 159 171 174 170 178 169 163 160 143 144 144 148 159 165 170 170 166 163 158 173 178 185 188 190 190 171 165 154 174 197 190 179 183 175 175 172 174 170 163 153 163 175 165 148 145 149 164 167 142 137 126 119 127 144 142 159 174 177 148 135 132 125 134 125 118 133 139
240 265 284 284 282 288 278 286 283 162 126 225 180 177 218 247 275 262 205 56 62 164 170 190 194 196 189 183 185 140 141 125 152 169 182 162 155 144 143 148 155 160 171 174 180 179 169 164 165 167 173 185 192 194 189 181 178 179 176 186 157 179 185 190 184 172 171 169 165 158 159 148 140 154 148 151 149 154 142 143 134 135 147 157 162 147 152 166 143 131 130 115 123 139 144 164 163
260 212 249 274 271 250 283 307 353 4 87 214 174 170 227 240 262 301 338 311 244 177 176 190 187 198 196 199 156 129 132 147 160 174 175 170 152 142 154 163 171 176 176 183 182 173 167 170 165 163 176 183 190 191 193 196 175 161 167 175 167 171 198 158 137 153 162 165 167 164 154 159 148 172 162 151 144 153 150 144 145 146 155 160 145 139 140 202 161 148 152 147 141 117 127 174 174
204 170 131 220 245 279 297 298 7 358 89 266 173 161 257 305 301 327 296 25 284 229 189 192 185 189 196 194 167 159 152 151 166 174 179 173 160 156 162 172 177 180 187 193 187 185 169 166 168 170 177 185 189 190 198 196 176 152 138 131 138 148 163 147 116 154 183 165 169 166 163 161 164 167 160 153 147 153 155 155 153 154 166 160 155 146 161 187 168 151 155 155 148 147 161 183 202
249 213 205 246 264 244 178 265 355 327 354 83 75 49 340 348 354 330 320 335 358 354 29 4 274 237 215 199 133 155 162 162 162 170 179 173 168 170 172 179 178 181 190 192 191 193 184 171 171 173 178 183 188 196 197 189 167 139 131 118 120 104 111 139 155 181 193 187 171 178 177 168 163 160 159 156 153 164 164 160 162 162 167 167 166 150 164 181 181 168 162 156 169 161 164 171 201
274 242 185 204 202 250 285 29 45 23 346 334 110 35 330 298 319 266 281 337 356 19 25 21 359 296 360 6 28 11 47 149 164 174 180 181 178 168 174 180 183 187 192 194 196 219 216 169 163 161 165 178 191 197 195 192 181 160 148 150 159 160 160 164 184 184 186 190 188 173 170 179 161 158 160 161 157 161 175 171 166 167 181 171 175 154 158 166 176 168 176 169 170 178 163 166 184
178 248 205 202 211 358 336 326 58 56 122 310 85 120 254 331 327 297 294 17 22 13 26 9 17 24 22 200 166 168 150 120 106 117 164 175 190 182 181 190 191 194 224 16 357 323 304 160 159 164 166 171 179 195 202 208 185 168 168 170 168 171 174 188 178 178 189 190 158 169 177 170 171 160 165 170 143 167 179 180 174 178 186 171 155 147 165 177 175 173 168 176 177 168 165 169 181
205 240 212 266 11 286 287 60 119 205 288 324 21 102 127 335 298 267 3 61 27 21 12 9 7 9 29 22 340 208 139 137 140 147 171 183 187 188 173 180 194 196 175 98 64 24 359 351 77 164 170 173 183 192 207 213 189 181 175 172 167 170 180 178 175 171 168 172 172 175 168 171 172 168 165 169 142 189 204 186 177 172 177 166 160 170 172 170 165 174 174 177 167 177 178 175 176
206 238 191 228 236 227 285 9 143 156 107 309 324 3 60 284 290 349 28 67 25 21 4 6 4 12 21 26 40 44 63 106 131 147 167 177 181 199 192 184 195 197 134 116 114 106 82 48 10 350 226 199 195 207 206 208 199 189 184 176 171 167 159 155 153 158 166 166 178 171 172 171 169 172 167 167 171 179 188 189 170 150 167 182 182 166 159 166 175 171 171 173 180 183 185 183 165
252 199 156 135 50 312 149 135 101 3 69 274 270 23 117 291 332 357 353 57 13 341 354 9 11 17 23 27 29 42 52 54 107 143 156 167 181 207 207 162 71 12 9 64 132 105 86 82 45 266 232 215 206 205 206 202 198 191 188 185 176 156 142 137 150 165 175 170 176 177 174 172 170 171 176 168 170 177 183 184 150 156 171 181 192 173 157 164 177 182 183 181 175 170 183 176 181
194 113 90 17 45 33 14 66 97 60 34 251 244 68 127 68 354 344 23 342 318 330 332 3 9 17 22 29 32 33 38 43 39 33 32 84 160 225 300 75 52 33 5 344 317 212 153 163 164 218 232 218 198 196 197 201 198 193 191 190 182 162 152 148 154 165 173 173 177 177 178 179 174 177 176 182 178 180 160 169 151 160 172 184 197 184 178 174 178 183 181 171 175 170 177 177 175
108 139 140 77 318 15 28 346 38 82 293 257 258 98 78 122 319 9 22 14 8 6 18 7 6 8 16 26 32 32 31 34 41 44 42 43 45 45 34 22 33 52 137 253 297 296 281 172 156 194 229 219 192 190 192 198 196 198 198 193 186 171 159 161 165 166 172 179 178 179 175 167 187 185 182 182 193 160 149 180 145 180 191 193 199 194 187 173 170 173 171 176 176 173 170 171 169
81 90 61 115 251 43 316 18 12 155 178 260 319 144 47 38 123 97 56 33 21 25 20 13 9 16 20 28 34 38 39 36 37 42 45 47 44 48 53 53 37 27 8 354 338 323 305 312 291 197 199 199 195 193 190 193 197 204 202 200 191 175 171 166 168 168 175 179 178 175 172 185 178 184 189 185 197 153 162 158 184 191 196 198 195 191 187 171 164 164 168 173 167 173 178 173 172
109 140 126 91 94 50 181 277 226 324 296 259 118 82 92 160 102 90 73 56 52 39 30 20 22 21 24 28 29 36 42 42 38 40 46 47 45 38 41 48 93 93 23 208 242 281 318 313 288 293 263 225 195 179 187 205 219 209 213 208 191 182 183 171 171 170 174 179 177 180 184 184 181 188 187 189 161 114 179 185 185 199 199 188 187 186 180 168 161 162 162 168 172 176 171 170 173
201 156 140 170 142 158 200 184 158 194 207 281 276 126 204 132 240 97 88 79 64 55 42 27 23 20 19 25 31 34 38 40 39 41 38 37 37 43 38 22 5 341 201 221 237 296 298 290 325 336 336 344 19 73 215 264 322 305 248 221 189 195 188 180 176 171 169 172 182 181 185 180 183 192 190 183 118 144 175 184 187 190 188 195 187 187 183 156 150 148 156 166 165 159 161 160 165
254 153 70 86 205 138 160 202 142 205 166 22 30 92 37 108 133 98 95 72 62 60 55 48 42 31 26 30 29 29 32 35 36 35 33 30 29 25 27 19 12 304 289 299 103 348 328 328 353 337 346 358 339 298 142 162 161 319 345 323 254 194 201 185 166 160 172 176 177 178 180 185 192 187 184 172 130 162 166 177 186 191 188 197 200 188 179 160 153 148 150 156 159 150 147 158 168
267 104 163 206 171 133 127 44 95 91 43 261 192 86 52 144 78 57 72 68 59 58 59 54 50 45 43 42 33 28 29 31 31 28 25 25 24 23 19 13 1 357 322 296 305 158 258 293 265 277 253 217 234 300 269 141 129 138 73 332 308 260 196 198 180 173 174 177 175 174 176 184 183 180 178 176 150 158 162 166 182 191 197 207 202 185 171 161 148 149 153 154 153 151 153 162 164
91 133 239 181 102 103 126 185 345 86 152 239 89 147 169 152 193 8 42 59 51 46 47 51 50 44 44 41 36 33 28 25 25 22 18 19 19 15 12 9 10 3 352 313 268 276 267 256 276 241 285 243 266 46 196 148 116 117 114 94 297 266 236 207 194 177 168 168 179 180 168 172 184 179 168 168 160 156 161 164 173 188 203 200 202 176 156 160 147 152 158 160 150 150 150 149 169
156 187 198 95 262 238 319 98 122 107 199 208 13 4 36 68 282 13 42 60 59 51 50 51 46 43 45 41 39 36 29 24 20 14 13 13 13 9 4 4 2 6 4 359 357 311 239 247 143 109 355 342 354 92 104 146 130 153 153 141 162 284 256 217 204 180 164 173 182 182 181 181 171 166 160 165 166 156 157 163 169 180 192 196 194 166 146 155 159 149 155 155 146 149 152 157 168
346 46 49 303 104 156 128 198 175 117 227 93 326 57 266 331 343 348 65 65 64 57 48 46 43 38 36 37 37 39 35 26 19 15 13 10 10 8 6 3 360 1 4 1 353 345 344 328 345 218 190 182 150 186 221 133 147 182 193 161 183 206 260 244 202 180 173 177 180 179 178 169 174 164 166 162 162 162 160 160 164 171 182 190 192 157 146 156 159 159 151 147 152 150 153 160 165
25 47 360 1 349 230 109 19 101 168 172 167 149 92 282 13 351 27 63 56 49 44 46 43 39 36 36 37 34 36 40 33 22 16 9 10 10 5 5 3 1 360 8 8 5 354 343 352 298 336 14 12 212 212 196 171 163 179 192 201 167 107 359 324 293 196 172 170 172 175 175 171 151 163 157 155 162 166 165 163 160 166 175 186 186 157 153 152 158 153 142 147 153 159 160 162 159
109 132 87 192 65 59 150 236 355 59 91 176 118 204 220 18 341 48 67 56 56 48 47 46 39 37 36 32 31 32 37 36 28 19 14 11 8 4 2 4 8 10 10 9 5 4 7 1 348 328 291 274 242 214 207 181 174 175 163 155 163 157 135 92 301 246 171 164 163 170 166 151 157 163 155 154 161 163 165 163 160 165 173 182 180 164 158 156 160 157 155 156 166 165 165 163 164